Time,TemperatureF,DewpointF,PressureIn,WindDirection,WindDirectionDegrees,WindSpeedMPH,WindSpeedGustMPH,Humidity,HourlyPrecipIn,Conditions,Clouds,dailyrainin,SoftwareType,DateUTC
2015-07-05 00:03:00,68.0,56.0,-100.00,NE,50,3.0,3.0,66,-99.99,,,-99.99,,2015-07-05 07:03:00,
2015-07-05 00:12:00,68.0,56.0,-100.00,NE,50,3.0,3.0,66,-99.99,,,-99.99,,2015-07-05 07:12:00,
2015-07-05 00:44:00,68.0,55.0,-100.00,North,-9999,0.0,3.0,63,-99.99,,,-99.99,,2015-07-05 07:44:00,
2015-07-05 00:53:00,68.0,55.0,-100.00,North,-9999,0.0,3.0,63,-99.99,,,-99.99,,2015-07-05 07:53:00,
2015-07-05 01:02:00,68.0,55.0,-100.00,North,-9999,0.0,3.0,63,-99.99,,,-99.99,,2015-07-05 08:02:00,
2015-07-05 01:13:00,68.0,55.0,-100.00,North,-9999,0.0,3.0,63,-99.99,,,-99.99,,2015-07-05 08:13:00,
2015-07-05 01:44:00,67.0,48.0,-100.00,South,173,2.0,3.0,51,-99.99,,,-99.99,,2015-07-05 08:44:00,
2015-07-05 01:53:00,67.0,48.0,-100.00,South,173,2.0,3.0,51,-99.99,,,-99.99,,2015-07-05 08:53:00,
2015-07-05 02:02:00,67.0,48.0,-100.00,South,173,2.0,3.0,51,-99.99,,,-99.99,,2015-07-05 09:02:00,
2015-07-05 02:12:00,67.0,48.0,-100.00,South,173,2.0,3.0,51,-99.99,,,-99.99,,2015-07-05 09:12:00,
2015-07-05 02:43:00,66.0,51.0,-100.00,NE,39,2.0,3.0,58,-99.99,,,-99.99,,2015-07-05 09:43:00,
2015-07-05 02:53:00,66.0,51.0,-100.00,NE,39,2.0,3.0,58,-99.99,,,-99.99,,2015-07-05 09:53:00,
2015-07-05 03:03:00,66.0,51.0,-100.00,NE,39,2.0,3.0,58,-99.99,,,-99.99,,2015-07-05 10:03:00,
2015-07-05 03:12:00,66.0,51.0,-100.00,NE,39,2.0,3.0,58,-99.99,,,-99.99,,2015-07-05 10:12:00,
2015-07-05 03:43:00,67.0,52.0,-100.00,North,-9999,0.0,2.0,58,-99.99,,,-99.99,,2015-07-05 10:43:00,
2015-07-05 03:53:00,67.0,52.0,-100.00,North,-9999,0.0,2.0,58,-99.99,,,-99.99,,2015-07-05 10:53:00,
2015-07-05 04:03:00,67.0,52.0,-100.00,North,-9999,0.0,2.0,58,-99.99,,,-99.99,,2015-07-05 11:03:00,
2015-07-05 04:13:00,67.0,52.0,-100.00,North,-9999,0.0,2.0,58,-99.99,,,-99.99,,2015-07-05 11:13:00,
2015-07-05 04:44:00,65.0,52.0,-100.00,NE,45,2.0,4.0,63,-99.99,,,-99.99,,2015-07-05 11:44:00,
2015-07-05 04:54:00,65.0,52.0,-100.00,NE,45,2.0,4.0,63,-99.99,,,-99.99,,2015-07-05 11:54:00,
2015-07-05 05:03:00,65.0,52.0,-100.00,NE,45,2.0,4.0,63,-99.99,,,-99.99,,2015-07-05 12:03:00,
2015-07-05 05:12:00,65.0,52.0,-100.00,NE,45,2.0,4.0,63,-99.99,,,-99.99,,2015-07-05 12:12:00,
2015-07-05 05:44:00,64.0,53.0,-100.00,NE,55,2.0,4.0,67,-99.99,,,-99.99,,2015-07-05 12:44:00,
2015-07-05 05:54:00,64.0,53.0,-100.00,NE,55,2.0,4.0,67,-99.99,,,-99.99,,2015-07-05 12:54:00,
2015-07-05 06:03:00,64.0,53.0,-100.00,NE,55,2.0,4.0,67,-99.99,,,-99.99,,2015-07-05 13:03:00,
2015-07-05 06:13:00,64.0,53.0,-100.00,NE,55,2.0,4.0,67,-99.99,,,-99.99,,2015-07-05 13:13:00,
2015-07-05 06:44:00,66.0,53.0,-100.00,North,-9999,0.0,4.0,63,-99.99,,,-99.99,,2015-07-05 13:44:00,
2015-07-05 06:53:00,66.0,53.0,-100.00,North,-9999,0.0,4.0,63,-99.99,,,-99.99,,2015-07-05 13:53:00,
2015-07-05 07:03:00,66.0,53.0,-100.00,North,-9999,0.0,4.0,63,-99.99,,,-99.99,,2015-07-05 14:03:00,
2015-07-05 07:12:00,66.0,53.0,-100.00,North,-9999,0.0,4.0,63,-99.99,,,-99.99,,2015-07-05 14:12:00,
2015-07-05 09:44:00,78.0,56.0,-100.00,SSE,168,2.0,7.0,47,-99.99,,,-99.99,,2015-07-05 16:44:00,
2015-07-05 09:54:00,78.0,56.0,-100.00,SSE,168,2.0,7.0,47,-99.99,,,-99.99,,2015-07-05 16:54:00,
2015-07-05 10:03:00,78.0,56.0,-100.00,SSE,168,2.0,7.0,47,-99.99,,,-99.99,,2015-07-05 17:03:00,
2015-07-05 10:13:00,78.0,56.0,-100.00,SSE,168,2.0,7.0,47,-99.99,,,-99.99,,2015-07-05 17:13:00,
2015-07-05 10:44:00,80.0,48.0,-100.00,SSE,154,4.0,7.0,33,-99.99,,,-99.99,,2015-07-05 17:44:00,
2015-07-05 10:54:00,80.0,48.0,-100.00,SSE,154,4.0,7.0,33,-99.99,,,-99.99,,2015-07-05 17:54:00,
2015-07-05 11:03:00,80.0,48.0,-100.00,SSE,154,4.0,7.0,33,-99.99,,,-99.99,,2015-07-05 18:03:00,
2015-07-05 11:13:00,80.0,48.0,-100.00,SSE,154,4.0,7.0,33,-99.99,,,-99.99,,2015-07-05 18:13:00,
2015-07-05 11:44:00,84.0,46.0,-100.00,South,187,3.0,10.0,27,-99.99,,,-99.99,,2015-07-05 18:44:00,
2015-07-05 11:54:00,84.0,46.0,-100.00,South,187,3.0,10.0,27,-99.99,,,-99.99,,2015-07-05 18:54:00,
2015-07-05 12:03:00,84.0,46.0,-100.00,South,187,3.0,10.0,27,-99.99,,,-99.99,,2015-07-05 19:03:00,
2015-07-05 12:13:00,84.0,46.0,-100.00,South,187,3.0,10.0,27,-99.99,,,-99.99,,2015-07-05 19:13:00,
2015-07-05 12:44:00,86.0,49.0,-100.00,SW,223,5.0,16.0,28,-99.99,,,-99.99,,2015-07-05 19:44:00,
2015-07-05 12:54:00,86.0,49.0,-100.00,SW,223,5.0,16.0,28,-99.99,,,-99.99,,2015-07-05 19:54:00,
2015-07-05 13:03:00,86.0,49.0,-100.00,SW,223,5.0,16.0,28,-99.99,,,-99.99,,2015-07-05 20:03:00,
2015-07-05 13:12:00,86.0,49.0,-100.00,SW,223,5.0,16.0,28,-99.99,,,-99.99,,2015-07-05 20:12:00,
2015-07-05 13:44:00,87.0,51.0,-100.00,SW,236,6.0,15.0,29,-99.99,,,-99.99,,2015-07-05 20:44:00,
2015-07-05 13:53:00,87.0,51.0,-100.00,SW,236,6.0,15.0,29,-99.99,,,-99.99,,2015-07-05 20:53:00,
2015-07-05 14:03:00,87.0,51.0,-100.00,SW,236,6.0,15.0,29,-99.99,,,-99.99,,2015-07-05 21:03:00,
2015-07-05 14:12:00,87.0,51.0,-100.00,SW,236,6.0,15.0,29,-99.99,,,-99.99,,2015-07-05 21:12:00,
2015-07-05 14:44:00,88.0,51.0,-100.00,SSW,200,7.0,16.0,28,-99.99,,,-99.99,,2015-07-05 21:44:00,
2015-07-05 14:54:00,88.0,51.0,-100.00,SSW,200,7.0,16.0,28,-99.99,,,-99.99,,2015-07-05 21:54:00,
2015-07-05 15:03:00,88.0,51.0,-100.00,SSW,200,7.0,16.0,28,-99.99,,,-99.99,,2015-07-05 22:03:00,
2015-07-05 15:13:00,88.0,51.0,-100.00,SSW,200,7.0,16.0,28,-99.99,,,-99.99,,2015-07-05 22:13:00,
2015-07-05 15:44:00,87.0,48.0,-100.00,SSW,194,4.0,14.0,26,-99.99,,,-99.99,,2015-07-05 22:44:00,
2015-07-05 15:54:00,87.0,48.0,-100.00,SSW,194,4.0,14.0,26,-99.99,,,-99.99,,2015-07-05 22:54:00,
2015-07-05 16:04:00,87.0,48.0,-100.00,SSW,194,4.0,14.0,26,-99.99,,,-99.99,,2015-07-05 23:04:00,
2015-07-05 16:13:00,87.0,48.0,-100.00,SSW,194,4.0,14.0,26,-99.99,,,-99.99,,2015-07-05 23:13:00,
2015-07-05 16:44:00,89.0,47.0,-100.00,SSW,212,5.0,13.0,24,-99.99,,,-99.99,,2015-07-05 23:44:00,
2015-07-05 16:53:00,89.0,47.0,-100.00,SSW,212,5.0,13.0,24,-99.99,,,-99.99,,2015-07-05 23:53:00,
2015-07-05 17:03:00,89.0,47.0,-100.00,SSW,212,5.0,13.0,24,-99.99,,,-99.99,,2015-07-06 00:03:00,
2015-07-05 17:12:00,89.0,47.0,-100.00,SSW,212,5.0,13.0,24,-99.99,,,-99.99,,2015-07-06 00:12:00,
2015-07-05 17:44:00,86.0,46.0,-100.00,WSW,244,5.0,13.0,25,-99.99,,,-99.99,,2015-07-06 00:44:00,
2015-07-05 17:53:00,86.0,46.0,-100.00,WSW,244,5.0,13.0,25,-99.99,,,-99.99,,2015-07-06 00:53:00,
2015-07-05 18:03:00,86.0,46.0,-100.00,WSW,244,5.0,13.0,25,-99.99,,,-99.99,,2015-07-06 01:03:00,
2015-07-05 18:12:00,86.0,46.0,-100.00,WSW,244,5.0,13.0,25,-99.99,,,-99.99,,2015-07-06 01:12:00,
2015-07-05 18:44:00,84.0,45.0,-100.00,WSW,247,4.0,14.0,26,-99.99,,,-99.99,,2015-07-06 01:44:00,
2015-07-05 18:53:00,84.0,45.0,-100.00,WSW,247,4.0,14.0,26,-99.99,,,-99.99,,2015-07-06 01:53:00,
2015-07-05 19:03:00,84.0,45.0,-100.00,WSW,247,4.0,14.0,26,-99.99,,,-99.99,,2015-07-06 02:03:00,
2015-07-05 19:12:00,84.0,45.0,-100.00,WSW,247,4.0,14.0,26,-99.99,,,-99.99,,2015-07-06 02:12:00,
2015-07-05 19:44:00,81.0,47.0,-100.00,SW,235,4.0,11.0,30,-99.99,,,-99.99,,2015-07-06 02:44:00,
2015-07-05 19:53:00,81.0,47.0,-100.00,SW,235,4.0,11.0,30,-99.99,,,-99.99,,2015-07-06 02:53:00,
2015-07-05 20:03:00,81.0,47.0,-100.00,SW,235,4.0,11.0,30,-99.99,,,-99.99,,2015-07-06 03:03:00,
2015-07-05 20:12:00,81.0,47.0,-100.00,SW,235,4.0,11.0,30,-99.99,,,-99.99,,2015-07-06 03:12:00,
2015-07-05 20:44:00,73.0,47.0,-100.00,SW,234,4.0,7.0,39,-99.99,,,-99.99,,2015-07-06 03:44:00,
2015-07-05 20:53:00,73.0,47.0,-100.00,SW,234,4.0,7.0,39,-99.99,,,-99.99,,2015-07-06 03:53:00,
2015-07-05 21:03:00,73.0,47.0,-100.00,SW,234,4.0,7.0,39,-99.99,,,-99.99,,2015-07-06 04:03:00,
2015-07-05 21:12:00,73.0,47.0,-100.00,SW,234,4.0,7.0,39,-99.99,,,-99.99,,2015-07-06 04:12:00,
2015-07-05 21:44:00,71.0,46.0,-100.00,SW,214,2.0,5.0,41,-99.99,,,-99.99,,2015-07-06 04:44:00,
2015-07-05 21:54:00,71.0,46.0,-100.00,SW,214,2.0,5.0,41,-99.99,,,-99.99,,2015-07-06 04:54:00,
2015-07-05 22:03:00,71.0,46.0,-100.00,SW,214,2.0,5.0,41,-99.99,,,-99.99,,2015-07-06 05:03:00,
2015-07-05 22:12:00,71.0,46.0,-100.00,SW,214,2.0,5.0,41,-99.99,,,-99.99,,2015-07-06 05:12:00,